STARLINK-35727, 66281

Orbit data source: Space-Track

STARLINK-35727, 66281 is a payload satellite owned by SpaceX/Seattle (US) in LEO that was launched on Fri, 31 Oct 2025 UTC via an FALCON 9 launch vehicle from the Air Force Western Test Range (AFWTR). Payload-class satellites include a variety of spacecraft equipped with specific instruments for various scientific and technological missions. These include communications satellites like Starlink; space stations such as the ISS; scientific satellites like the Hubble; Earth observation satellites from companies like Planet Labs, Umbra, and HawkEye 360; GPS; miniature CubeSats for education and research; and military/defense satellites.

Loading next visibility...
Identifier
66281, 2025-247S
Orbit
LEO
Country
Flag of USUS
Related business
Manufacturer
SpaceX/Seattle
Mission
Operational Commercial Communications
Bus & Motor
STARLINK V2MO, Unknown motor
Mass
575 kg wet, ~530 kg dry
Launch date (UTC)
2025-10-31 (8 months ago)
Launch vehicle
FALCON 9
Launch site
Air Force Western Test Range (AFWTR)
Object type
Payload
Rocket body
Debris
Shape & HBR
Box + 2 Pan, 17.7 m
Radar Cross Section
36.964 m², Large (>1 m²)

Expand to show TLE details & history
Last TLE update: 22 hours ago

TLE from 22 hours ago
0 STARLINK-35727
1 66281U 25247S   26170.94420213  .00010251  00000-0  31425-3 0  9991
2 66281  53.1599  76.1742 0000634 104.9655 255.1418 15.34385940 36699
Epoch: 2026-06-19T22:39Z
TLE epoch observation values (Epoch: 2026-06-19T22:39:39.064Z)
Latitude
0.00002°
Longitude
-171.90447°
Altitude
463.758 km
Speed
7.636 km/s
True Right ascension
05h 04m 41s
True Declination
0° 00' 00"
Sunlit
Object was in daylight at epoch
Visualization orbit readout
Latitude
Unknown
Longitude
Unknown
Altitude
Unknown
Speed
Unknown
Apparent Right ascension
Unknown
Apparent Declination
Unknown
Sunlit
N/A
Visualization observer readout
Local Sidereal Time
07:17:20
Azimuth
Unknown
Elevation
Unknown
Doppler factor
Unknown
Orbital elements
Apogee altitude
463.436 km
Perigee altitude
462.568 km
Semi-major axis
6,841.139 km
Eccentricity
0.00006
Inclination
53.1599°
RAAN
76.1742°
Arg. of periapsis
104.9655°
True anomaly
255.13478°
Mean anomaly
255.1418°
Eccentric anomaly
255.13829°
Mean motion
3.83575 °/min
Orbital period
93.85 mins
BSTAR
0.00031425
Loading maneuver chart data...
Computing Atmospheric mass density...
Loading historical data...
Loading historical data...
Loading historical data...
Loading historical data...
Loading historical data...
Loading historical data...
Loading historical data...

Documentation

Showing up to 5 results
|